Regional Weather Roundup
Issued by NWS

Home | Current Version | Previous Version | Text Only | Print | Product List | Glossary On
Versions: 1 2 3 4 5 6 7 8 9 10 11 12 13 14 15 16 17 18 19 20 21 22 23 24 25 26 27 28 29 30 31 32 33 34 35 36 37 38 39 40 41 42 43 44 45 46 47 48 49 50
000
ASUS44 KFWD 181403
RWRTX
NORTH TEXAS HOURLY WEATHER ROUNDUP
NATIONAL WEATHER SERVICE FORT WORTH TX
800 AM CST THU DEC 18 2014

NOTE: "FAIR" INDICATES FEW OR NO CLOUDS BELOW 12,000 FEET WITH NO
SIGNIFICANT WEATHER AND/OR OBSTRUCTIONS TO VISIBILITY.

TXZ118-119-181500-
DALLAS/FORT WORTH METROPLEX

CITY           SKY/WX    TMP DP  RH WIND       PRES   REMARKS
DFW AIRPORT    DRZL/FOG  43  42  97 SE3       30.14R VSB 1
DALLAS LOVE    CLOUDY    44  43  96 E5        30.15R FOG
FTW MEACHAM    FOG       44  43  96 E5        30.13S VSB 3/4
DAL-EXECUTIVE  FOG       45  42  89 E6        30.13R VSB 3/4
FTW-ALLIANCE   CLOUDY    42  42 100 E5        30.13S FOG     WCI  39
FTW-SPINKS     FOG       45  45 100 CALM      30.15R VSB 3/4
ARLINGTON      LGT RAIN  43  42  97 E5        30.14S FOG
GRAND PRAIRIE  FOG       45  45 100 E7        30.16  VSB 1
ADDISON        CLOUDY    43  41  93 CALM      30.15R FOG
MESQUITE       CLOUDY    43  43 100 CALM      30.16R FOG
LANCASTER      FOG       43  41  94 E3        30.15S VSB 1
$$

TXZ091>094-102>105-117-120-121-131>134-181500-
NORTH CENTRAL TEXAS

CITY           SKY/WX    TMP DP  RH WIND       PRES   REMARKS
SHRMAN/DENISON CLOUDY    41  41 100 CALM      30.17R FOG
BRIDGEPORT     CLOUDY    42  42 100 E6        30.15R FOG     WCI  39
DECATUR        CLOUDY    42  42 100 E3        30.13R FOG
DENTON         CLOUDY    43  42  97 E3        30.14S FOG
MCKINNEY       CLOUDY    42  41  96 E3        30.15R FOG
ROCKWALL       CLOUDY    42  42  99 E3        30.14R FOG
TERRELL        CLOUDY    44  42  93 E5        30.15R FOG
WAXAHACHIE     FOG       44  44 100 E3        30.15S VSB 1/2
CLEBURNE       FOG       45  45 100 CALM      30.15R VSB 1
GRANBURY       CLOUDY    47  45  94 SE3       30.14R FOG
$$

TXZ083>090-098>101-113>116-127>130-139>142-154-155-181500-
WESTERN NORTH TEXAS

CITY           SKY/WX    TMP DP  RH WIND       PRES   REMARKS
WICHITA FALLS  CLOUDY    41  40  96 SE8       30.12R FOG     WCI  36
WF-KICKAPOO    CLOUDY    42  42 100 E6        30.13R FOG     WCI  38
VERNON         CLOUDY    42  39  88 NE6       30.12R WCI  39
ABILENE        CLEAR     43  42  97 SW7       30.10R FOG     WCI  39
ABILENE-DYESS  CLEAR     38  34  84 S5        30.09R WCI  35
BRECKENRIDGE   CLOUDY    50  49  97 S3        30.10R FOG
MINERAL WELLS  FOG       44  43  96 SE9       30.10S VSB 1/2 WCI  39
STEPHENVILLE   CLOUDY    46  44  94 CALM      30.13S VSB 1/2
COMANCHE       CLOUDY    50  50 100 W5        30.11R
COLEMAN        CLOUDY    49  49 100 SW5       30.12R
$$

TXZ143>147-156>162-174-175-181500-
CENTRAL TEXAS

CITY           SKY/WX    TMP DP  RH WIND       PRES   REMARKS
WACO           FOG       47  46  97 E3        30.13S VSB 1
WACO-MCGREGOR  CLOUDY    46  43  87 CALM      30.14R
CORSICANA      FOG       46  45  96 E6        30.15R VSB 3/4
MEXIA          FOG       46  46  99 E3        30.12S VSB 1/4
HEARNE         CLOUDY    49  48  99 CALM      30.15R FOG
TEMPLE         CLOUDY    46  43  87 CALM      30.12S VSB 1/2
KILLEEN        CLOUDY    47  47 100 S2        30.12R FOG
KILLEEN-SKYLRK CLOUDY    48  43  81 CALM      30.09S
FORT HOOD      CLOUDY    47  47 100 S1        30.12R FOG
GATESVILLE     CLOUDY    46  46 100 CALM      30.15R VSB 1/2
HAMILTON       FOG       47  47 100 SE6       30.12R VSB 1/2
LAMPASAS       CLOUDY    50  50  99 CALM      30.11R FOG
$$

TXZ095>097-106>112-122>126-135>138-148>153-164>167-181500-
EAST TEXAS

CITY           SKY/WX    TMP DP  RH WIND       PRES   REMARKS
PARIS          CLOUDY    39  37  93 E6        30.19R WCI  35
SULPHUR SPRNGS CLOUDY    42  41  97 E5        30.18R FOG     WCI  39
MOUNT PLEASANT CLOUDY    42  41  98 SE5       30.18S WCI  39
MINEOLA        CLOUDY    43  43 100 CALM      30.16S FOG
TYLER          CLOUDY    45  42  89 E6        30.14S FOG
LONGVIEW       CLOUDY    44  42  93 E7        30.15S FOG
MARSHALL       CLOUDY    46  44  93 CALM      30.18F
PALESTINE      CLOUDY    47  46  97 NE5       30.15S FOG
JACKSONVILLE   CLOUDY    45  45  99 NE6       30.15S FOG
HENDERSON      CLOUDY    44  44  98 E7        30.16F FOG
NACOGDOCHES    CLOUDY    46  43  87 CALM      30.15S
LUFKIN         CLOUDY    53  46  77 NE6       30.14R
$$

SUPPLEMENTAL OBSERVATIONS (CENTRAL)

CITY           SKY/WX    TMP DP  RH WIND       PRES   REMARKS
$$

SUPPLEMENTAL OBSERVATIONS (WEST)

CITY           SKY/WX    TMP DP  RH WIND       PRES   REMARKS
$$

SUPPLEMENTAL OBSERVATIONS (EAST)

CITY           SKY/WX    TMP DP  RH WIND       PRES   REMARKS
$$

SUPPLEMENTAL OBSERVATIONS ARE A COLLECTION OF AUTOMATED INSTRUMENTS
THAT ARE MAINTAINED BY A VARIETY OF FEDERAL AND STATE AGENCIES.
CERTAIN ELEMENTS...SUCH AS HUMIDITY VALUES AND SUSTAINED WIND
SPEEDS...MAY BE APPROXIMATED.



USA.gov is the U.S. government's official web portal to all federal, state and local government web resources and services.